N101ML CYCG-CZNL

Flight info

Callsign N101ML
Flight time 0h 14m
Altitude 11000
Route 491905N1173734W 491954N1173641W 492027N1173527W 492127N1173403W 492311N1173244W 492451N1173153W DCT 492644N1173135W 492728N1173030W 492734N1172857W 492802N1172759W 492854N1172657W 492916N1172533W 492931N1172334W 492921N1172216W 492844N1172012W DCT 492832N1171841W 492848N1171749W DCT 492917N1171743W
Aircraft C172/L-SFG/C

Departure

Time 2026-05-04 00:28
Airport Castlegar/West Kootenay Regional Airport (CYCG)

Arrival

Time 2026-05-04 00:43
Airport Nelson Airport (CZNL)
Time Latitude Longitude Altitude Speed Heading
2026-05-04 00:12 49.30008 -117.63605 1740 ft 0 kts 78°
2026-05-04 00:21 49.30008 -117.63600 1704 ft 1 kts 82°
2026-05-04 00:22 49.30002 -117.63580 1714 ft 1 kts 139°
2026-05-04 00:22 49.29997 -117.63560 1724 ft 1 kts 59°
2026-05-04 00:22 49.30013 -117.63557 1733 ft 1 kts 345°
2026-05-04 00:22 49.30021 -117.63567 1739 ft 1 kts 276°
2026-05-04 00:23 49.30006 -117.63570 1740 ft 6 kts 137°
2026-05-04 00:23 49.29950 -117.63533 1739 ft 11 kts 172°
2026-05-04 00:23 49.29864 -117.63509 1738 ft 14 kts 169°
2026-05-04 00:23 49.29763 -117.63477 1737 ft 14 kts 169°
2026-05-04 00:24 49.29678 -117.63448 1736 ft 10 kts 168°
2026-05-04 00:24 49.29637 -117.63392 1736 ft 6 kts 104°
2026-05-04 00:24 49.29636 -117.63355 1736 ft 0 kts 76°
2026-05-04 00:24 49.29637 -117.63353 1736 ft 1 kts 73°
2026-05-04 00:25 49.29631 -117.63289 1736 ft 10 kts 133°
2026-05-04 00:25 49.29545 -117.63241 1736 ft 17 kts 168°
2026-05-04 00:25 49.29403 -117.63199 1734 ft 21 kts 169°
2026-05-04 00:25 49.29272 -117.63156 1732 ft 17 kts 170°
2026-05-04 00:26 49.29164 -117.63126 1732 ft 13 kts 169°
2026-05-04 00:26 49.29086 -117.63102 1732 ft 10 kts 168°
2026-05-04 00:26 49.29021 -117.63084 1732 ft 8 kts 176°
2026-05-04 00:26 49.28967 -117.63084 1732 ft 7 kts 178°
2026-05-04 00:27 49.28937 -117.63065 1733 ft 3 kts 70°
2026-05-04 00:27 49.28957 -117.63064 1733 ft 8 kts 345°
2026-05-04 00:27 49.29182 -117.63130 1732 ft 56 kts 349°
2026-05-04 00:27 49.29672 -117.63280 1766 ft 79 kts 346°
2026-05-04 00:28 49.30229 -117.63445 1887 ft 84 kts 351°
2026-05-04 00:28 49.30813 -117.63581 2035 ft 85 kts 349°
2026-05-04 00:28 49.31420 -117.63696 2133 ft 89 kts 355°
2026-05-04 00:28 49.31962 -117.63501 2327 ft 82 kts 46°
2026-05-04 00:29 49.32268 -117.62659 2311 ft 96 kts 51°
2026-05-04 00:29 49.32679 -117.61832 2395 ft 97 kts 45°
2026-05-04 00:29 49.33070 -117.61004 2541 ft 93 kts 45°
2026-05-04 00:29 49.33513 -117.60293 2661 ft 97 kts 44°
2026-05-04 00:30 49.33946 -117.59493 2771 ft 98 kts 48°
2026-05-04 00:30 49.34383 -117.58665 2832 ft 102 kts 46°
2026-05-04 00:30 49.34864 -117.57809 2867 ft 105 kts 40°
2026-05-04 00:30 49.35383 -117.57149 3068 ft 94 kts 35°
2026-05-04 00:31 49.35902 -117.56501 3133 ft 99 kts 33°
2026-05-04 00:31 49.36495 -117.55901 3168 ft 103 kts 18°
2026-05-04 00:31 49.37207 -117.55496 3119 ft 110 kts 17°
2026-05-04 00:31 49.37907 -117.55162 3224 ft 105 kts 15°
2026-05-04 00:32 49.38569 -117.54775 3354 ft 98 kts 18°
2026-05-04 00:32 49.39181 -117.54414 3499 ft 92 kts 19°
2026-05-04 00:32 49.39787 -117.54267 3611 ft 90 kts 353°
2026-05-04 00:32 49.40431 -117.54074 3632 ft 99 kts 15°
2026-05-04 00:33 49.41087 -117.53696 3636 ft 103 kts 31°
2026-05-04 00:33 49.42291 -117.52590 3665 ft 103 kts 12°
2026-05-04 00:33 49.43039 -117.52358 3519 ft 115 kts 11°
2026-05-04 00:34 49.43844 -117.52200 3413 ft 117 kts
2026-05-04 00:34 49.44638 -117.52210 3407 ft 111 kts
2026-05-04 00:34 49.45295 -117.51662 3398 ft 111 kts 47°
2026-05-04 00:34 49.45731 -117.50668 3390 ft 111 kts 57°
2026-05-04 00:35 49.46095 -117.49645 3419 ft 108 kts 61°
2026-05-04 00:35 49.46337 -117.48527 3371 ft 114 kts 86°
2026-05-04 00:35 49.46292 -117.47277 3299 ft 115 kts 79°
2026-05-04 00:35 49.46570 -117.46142 3278 ft 115 kts 46°
2026-05-04 00:36 49.47180 -117.45373 3325 ft 108 kts 36°
2026-05-04 00:36 49.47738 -117.44607 3333 ft 109 kts 29°
2026-05-04 00:36 49.48407 -117.44045 3299 ft 113 kts 55°
2026-05-04 00:36 49.48653 -117.42859 3257 ft 115 kts 72°
2026-05-04 00:37 49.48881 -117.41742 3349 ft 106 kts 69°
2026-05-04 00:37 49.49108 -117.40691 3429 ft 101 kts 67°
2026-05-04 00:37 49.49318 -117.39642 3471 ft 107 kts 72°
2026-05-04 00:37 49.49407 -117.38495 3498 ft 110 kts 88°
2026-05-04 00:38 49.49324 -117.37312 3530 ft 111 kts 99°
2026-05-04 00:38 49.49010 -117.36211 3581 ft 112 kts 114°
2026-05-04 00:38 49.48647 -117.35151 3614 ft 113 kts 116°
2026-05-04 00:38 49.48257 -117.34097 3693 ft 111 kts 115°
2026-05-04 00:39 49.47980 -117.32981 3659 ft 112 kts 98°
2026-05-04 00:39 49.47879 -117.31834 3673 ft 107 kts 89°
2026-05-04 00:39 49.48039 -117.30716 3594 ft 111 kts 67°
2026-05-04 00:39 49.48356 -117.29600 3497 ft 113 kts 60°
2026-05-04 00:40 49.48745 -117.28593 3479 ft 108 kts 53°
2026-05-04 00:40 49.49185 -117.27666 3448 ft 106 kts 46°
2026-05-04 00:40 49.49851 -117.27392 3362 ft 108 kts 340°
2026-05-04 00:40 49.50388 -117.28230 3179 ft 118 kts 290°
2026-05-04 00:41 49.50223 -117.29480 2982 ft 126 kts 236°
2026-05-04 00:41 49.49562 -117.30360 2777 ft 124 kts 230°
2026-05-04 00:41 49.49274 -117.31519 2623 ft 116 kts 270°
2026-05-04 00:41 49.49381 -117.32688 2555 ft 106 kts 265°
2026-05-04 00:42 49.48878 -117.33307 2555 ft 98 kts 165°
2026-05-04 00:42 49.48621 -117.32499 2442 ft 96 kts 88°
2026-05-04 00:42 49.48716 -117.31537 2167 ft 91 kts 56°
2026-05-04 00:42 49.49048 -117.30810 1955 ft 72 kts 52°
2026-05-04 00:43 49.49311 -117.30256 1841 ft 55 kts 50°
2026-05-04 00:43 49.49488 -117.29864 1839 ft 33 kts 53°
2026-05-04 00:43 49.49579 -117.29656 1839 ft 15 kts 60°
2026-05-04 00:43 49.49606 -117.29569 1839 ft 3 kts 14°
2026-05-04 00:44 49.49613 -117.29592 1839 ft 5 kts 240°
2026-05-04 00:44 49.49575 -117.29669 1839 ft 12 kts 235°
2026-05-04 00:44 49.49519 -117.29800 1839 ft 15 kts 235°
2026-05-04 00:44 49.49451 -117.29948 1838 ft 19 kts 236°
2026-05-04 00:45 49.49370 -117.30131 1838 ft 20 kts 236°
2026-05-04 00:45 49.49294 -117.30286 1837 ft 12 kts 213°
2026-05-04 00:45 49.49271 -117.30322 1837 ft 0 kts 211°
2026-05-04 00:45 49.49252 -117.30324 1837 ft 4 kts 155°
2026-05-04 00:46 49.49233 -117.30306 1838 ft 4 kts 168°
2026-05-04 00:46 49.49205 -117.30331 1838 ft 6 kts 234°
2026-05-04 00:46 49.49191 -117.30373 1838 ft 3 kts 249°
2026-05-04 00:46 49.49175 -117.30402 1838 ft 2 kts 175°
2026-05-04 00:47 49.49169 -117.30389 1838 ft 1 kts 59°
2026-05-04 00:47 49.49170 -117.30387 1838 ft 0 kts 52°